Regional Weather Roundup
Issued by NWS

Home | Current Version | Previous Version | Text Only | Print | Product List | Glossary On
Versions: 1 2 3 4 5 6 7 8 9 10 11 12 13 14 15 16 17 18 19 20 21 22 23 24 25 26 27 28 29 30 31 32 33 34 35 36 37 38 39 40 41 42 43 44 45 46 47 48 49 50
000
ASUS43 KFSD 150302
RWRSD

WEATHER ROUNDUP FOR SOUTH DAKOTA
NATIONAL WEATHER SERVICE SIOUX FALLS SD
1000 PM CDT SUN SEP 14 2014

NOTE: "FAIR" INDICATES FEW OR NO CLOUDS BELOW 12,000 FEET WITH NO
SIGNIFICANT WEATHER AND/OR OBSTRUCTIONS TO VISIBILITY.


SDZ001>005-009-010-012>017-150400-
NORTHWEST AND NORTH CENTRAL SOUTH DAKOTA

CITY           SKY/WX    TMP DP  RH WIND       PRES   REMARKS
FAITH            N/A     50  41  71 CALM      30.18R
MOBRIDGE       CLOUDY    49  41  74 NE5       30.16R
$$

SDZ012>016-024>037-041>051-057-063-072>074-150400-
SOUTHWEST AND SOUTH CENTRAL SOUTH DAKOTA

CITY           SKY/WX    TMP DP  RH WIND       PRES   REMARKS
RAPID CTY ARPT CLEAR     42  36  79 E6        30.19R
PIERRE         CLOUDY    51  43  74 N3        30.14S
CUSTER         PTCLDY    37  35  92 CALM      30.19R
ELLSWORTH AFB  MOCLDY    46  38  73 E2        30.18R
PHILIP         MOCLDY    48  40  73 NE7       30.17R
PINE RIDGE     PTCLDY    46  41  82 NE7       30.15R
WINNER         CLOUDY    52  42  69 NE8       30.14R
$$

SDZ004>011-016>023-039-040-150400-
NORTHEAST SOUTH DAKOTA

CITY           SKY/WX    TMP DP  RH WIND       PRES   REMARKS
ABERDEEN       MOCLDY    46  43  89 NE5       30.16R
WATERTOWN      CLOUDY    48  43  82 CALM      30.16R
SISSETON         N/A     45  43  93 CALM      30.15R
$$

SDZ017-020-022-023-036>040-048>070-150400-
SOUTHEAST SOUTH DAKOTA

CITY           SKY/WX    TMP DP  RH WIND       PRES   REMARKS
SIOUX FALLS    CLOUDY    53  46  77 NE9       30.14R
HURON          CLOUDY    50  47  89 CALM      30.15R
CHAMBERLAIN    CLOUDY    51  43  73 NE7       30.14S
MITCHELL       CLOUDY    51  46  83 NE3       30.15S
YANKTON        CLOUDY    59  52  77 NE6       30.10R
$$

ABBREVIATIONS USED IN REMARKS
   TC - TEMPERATURE IN CELSIUS
  WCI - WIND CHILL INDEX
   HX - HEAT INDEX
  VSB - VISIBILITY



USA.gov is the U.S. government's official web portal to all federal, state and local government web resources and services.